Staples, MN

12:00 PM CDT on April 23, 2017 (GMT -0500)
Staples Municipal

Weather History for KSAZ - March, 2014

Change the Weather History Date:

Monday, March 31, 2014

  Actual Average Record
Temperature  
Mean Temperature 31 °F -  
Max Temperature 41 °F 44 °F 62 °F (1999)
Min Temperature 21 °F 25 °F 14 °F (2013)
Degree Days  
Heating Degree Days 34    
Moisture  
Dew Point 31 °F    
Average Humidity 84    
Maximum Humidity 100    
Minimum Humidity 65    
Precipitation  
Precipitation 0.29 in - - ()
Sea Level Pressure  
Sea Level Pressure 29.58 in    
Wind  
Wind Speed 8 mph (NE)    
Max Wind Speed 24 mph    
Max Gust Speed 31 mph    
Visibility 8 miles    
Events Rain , Snow , Thunderstorm    
Averages and records for this station are not official NWS values.
T = Trace of Precipitation, MM = Missing Value Source: NWS Daily Summary

Daily Weather History Graph

Daily Weather History Graph

Search for Another Location

Airport or City:

Trip Planner

Search our weather history database for the weather conditions in past years. The results will help you decide how hot, cold, wet, or windy it might be!

Date:

Astronomy

Mar. 31, 2014 Rise Set
Actual Time 7:00 AM CDT 7:46 PM CDT
Civil Twilight 6:30 AM CDT 8:17 PM CDT
Nautical Twilight 5:54 AM CDT 8:53 PM CDT
Astronomical Twilight 5:16 AM CDT 9:31 PM CDT
Moon 7:21 AM CDT (3/31) 9:12 PM CDT (3/31)
Length of Visible Light 13h 46m
Length of Day
12h 46m
New Moon, 1% of the Moon is Illuminated
Mar 31
New Moon
Apr 7
First Quarter
Apr 15
Full
Apr 22
Last Quarter
Apr 29
New

Hourly Weather History & Observations

Time (CDT) Temp. Windchill Dew Point Humidity Pressure Visibility Wind Dir Wind Speed Gust Speed Precip Events Conditions
12:13 AM 41.0 °F 35.8 °F 30.2 °F 65% 29.78 in 10.0 mi ENE 8.1 mph - N/A   Clear
12:33 AM 41.0 °F 37.1 °F 30.2 °F 65% 29.78 in 10.0 mi NE 5.8 mph - N/A   Clear
12:53 AM 41.0 °F 37.1 °F 30.2 °F 65% 29.76 in 10.0 mi ENE 5.8 mph - N/A   Clear
1:13 AM 41.0 °F 37.1 °F 30.2 °F 65% 29.75 in 10.0 mi ENE 5.8 mph - N/A   Clear
1:34 AM 41.0 °F 36.4 °F 30.2 °F 65% 29.75 in 10.0 mi ENE 6.9 mph - N/A   Clear
1:53 AM 41.0 °F 37.1 °F 30.2 °F 65% 29.74 in 10.0 mi ENE 5.8 mph - N/A   Clear
2:13 AM 41.0 °F 37.1 °F 32.0 °F 70% 29.74 in 10.0 mi ENE 5.8 mph - N/A   Clear
2:34 AM 41.0 °F 36.4 °F 32.0 °F 70% 29.73 in 10.0 mi East 6.9 mph - N/A   Clear
2:53 AM 39.2 °F 34.2 °F 30.2 °F 70% 29.71 in 10.0 mi ENE 6.9 mph - N/A   Clear
3:13 AM 39.2 °F 33.6 °F 30.2 °F 70% 29.70 in 10.0 mi ENE 8.1 mph - N/A   Clear
3:33 AM 39.2 °F 35.0 °F 30.2 °F 70% 29.70 in 10.0 mi NE 5.8 mph - N/A   Clear
3:53 AM 39.2 °F 35.9 °F 30.2 °F 70% 29.69 in 10.0 mi NE 4.6 mph - N/A   Clear
4:13 AM 39.2 °F - 30.2 °F 70% 29.70 in 10.0 mi Calm Calm - N/A   Clear
4:34 AM 39.2 °F 35.0 °F 30.2 °F 70% 29.69 in 10.0 mi ENE 5.8 mph - N/A   Clear
4:53 AM 39.2 °F 34.2 °F 30.2 °F 70% 29.69 in 10.0 mi ENE 6.9 mph - N/A   Clear
5:13 AM 37.4 °F 32.8 °F 30.2 °F 75% 29.68 in 10.0 mi ENE 5.8 mph - N/A   Clear
5:33 AM 37.4 °F 32.1 °F 30.2 °F 75% 29.67 in 10.0 mi ENE 6.9 mph - N/A   Clear
5:53 AM 39.2 °F 34.2 °F 30.2 °F 70% 29.67 in 10.0 mi ENE 6.9 mph - N/A   Clear
6:14 AM 37.4 °F 32.8 °F 30.2 °F 75% 29.66 in 10.0 mi ENE 5.8 mph - N/A   Clear
6:33 AM 37.4 °F 32.1 °F 30.2 °F 75% 29.65 in 10.0 mi ENE 6.9 mph - N/A   Clear
6:53 AM 37.4 °F 32.1 °F 30.2 °F 75% 29.64 in 10.0 mi ENE 6.9 mph - N/A   Clear
7:14 AM 37.4 °F 32.8 °F 30.2 °F 75% 29.64 in 10.0 mi ENE 5.8 mph - N/A   Clear
7:33 AM 37.4 °F 31.4 °F 30.2 °F 75% 29.65 in 10.0 mi East 8.1 mph - N/A   Clear
7:53 AM 37.4 °F 31.4 °F 30.2 °F 75% 29.66 in 10.0 mi ENE 8.1 mph - N/A   Clear
8:14 AM 37.4 °F 30.3 °F 30.2 °F 75% 29.64 in 10.0 mi ENE 10.4 mph - N/A   Clear
8:33 AM 37.4 °F 31.4 °F 30.2 °F 75% 29.64 in 10.0 mi ENE 8.1 mph - N/A   Clear
8:53 AM 37.4 °F 30.8 °F 30.2 °F 75% 29.63 in 10.0 mi East 9.2 mph - N/A   Scattered Clouds
9:14 AM 37.4 °F 32.1 °F 30.2 °F 75% 29.63 in 10.0 mi East 6.9 mph - N/A   Overcast
9:33 AM 37.4 °F 30.8 °F 30.2 °F 75% 29.63 in 10.0 mi East 9.2 mph 16.1 mph N/A   Overcast
9:53 AM 37.4 °F 31.4 °F 30.2 °F 75% 29.63 in 10.0 mi East 8.1 mph - N/A   Overcast
10:14 AM 37.4 °F 30.8 °F 30.2 °F 75% 29.62 in 10.0 mi East 9.2 mph - N/A   Overcast
10:33 AM 37.4 °F 32.1 °F 30.2 °F 75% 29.61 in - East 6.9 mph - N/A   Overcast
10:53 AM 37.4 °F - 32.0 °F 81% 29.61 in 10.0 mi North - - N/A Rain Light Rain
11:14 AM 37.4 °F 31.4 °F 33.8 °F 87% 29.60 in 7.0 mi ENE 8.1 mph - N/A Rain Rain
11:33 AM 37.4 °F 30.8 °F 33.8 °F 87% 29.59 in 5.0 mi ENE 9.2 mph - N/A Rain Light Rain
11:53 AM 37.4 °F 34.9 °F 33.8 °F 87% 29.59 in 7.0 mi ENE 3.5 mph - N/A Rain Light Rain
12:14 PM 37.4 °F 31.4 °F 33.8 °F 87% 29.58 in 7.0 mi East 8.1 mph - N/A Rain Light Rain
12:33 PM 35.6 °F 30.7 °F 33.8 °F 93% 29.57 in 7.0 mi ENE 5.8 mph - 0.01 in Rain Light Rain
12:53 PM 37.4 °F 31.4 °F 33.8 °F 87% 29.56 in 5.0 mi East 8.1 mph - 0.01 in   Drizzle
1:14 PM 37.4 °F 29.8 °F 35.6 °F 93% 29.55 in 7.0 mi ENE 11.5 mph - N/A   Overcast
1:33 PM 37.4 °F 31.4 °F 33.8 °F 87% 29.54 in 7.0 mi East 8.1 mph 17.3 mph N/A   Overcast
1:54 PM 37.4 °F 32.1 °F 33.8 °F 87% 29.53 in 7.0 mi East 6.9 mph 16.1 mph N/A   Drizzle
2:13 PM 37.4 °F 30.3 °F 33.8 °F 87% 29.52 in 7.0 mi East 10.4 mph - N/A   Overcast
2:33 PM 35.6 °F 27.5 °F 33.8 °F 93% 29.50 in 7.0 mi ENE 11.5 mph 16.1 mph N/A   Overcast
2:54 PM 35.6 °F 29.2 °F 33.8 °F 93% 29.48 in 3.0 mi ENE 8.1 mph - N/A   Drizzle
3:13 PM 35.6 °F 29.2 °F 35.6 °F 100% 29.48 in 5.0 mi ENE 8.1 mph - N/A   Overcast
3:33 PM 35.6 °F 30.7 °F 35.6 °F 100% 29.48 in 5.0 mi ENE 5.8 mph - N/A   Overcast
3:53 PM 35.6 °F 30.7 °F 35.6 °F 100% 29.48 in 5.0 mi NE 5.8 mph - N/A   Overcast
4:13 PM 35.6 °F 29.9 °F 35.6 °F 100% 29.47 in 4.0 mi NE 6.9 mph - N/A   Overcast
4:34 PM 35.6 °F 30.7 °F 33.8 °F 93% 29.47 in 4.0 mi ENE 5.8 mph - N/A   Overcast
4:53 PM 35.6 °F 29.2 °F 33.8 °F 93% 29.46 in 4.0 mi NE 8.1 mph - N/A   Overcast
5:13 PM 35.6 °F 29.9 °F 33.8 °F 93% 29.45 in 3.0 mi NE 6.9 mph - N/A Thunderstorm Overcast
5:34 PM 35.6 °F 28.0 °F 33.8 °F 93% 29.45 in 2.5 mi NE 10.4 mph - N/A   Drizzle
5:53 PM 33.8 °F 27.7 °F 33.8 °F 100% 29.45 in 2.5 mi NE 6.9 mph - N/A   Drizzle
6:13 PM 33.8 °F 27.0 °F 33.8 °F 100% 29.44 in 3.0 mi NE 8.1 mph - N/A   Overcast
6:34 PM 33.8 °F 26.4 °F 33.8 °F 100% 29.44 in 4.0 mi NE 9.2 mph - N/A Thunderstorm Overcast
6:53 PM 33.8 °F 25.8 °F 33.8 °F 100% 29.43 in 3.0 mi NNE 10.4 mph 18.4 mph 0.04 in Rain , Thunderstorm Heavy Thunderstorms and Rain
7:13 PM 33.8 °F 27.0 °F 33.8 °F 100% 29.46 in 2.5 mi North 8.1 mph 18.4 mph 0.19 in Snow , Thunderstorm Light Thunderstorms and Snow
7:34 PM 33.8 °F 26.4 °F 33.8 °F 100% 29.47 in 5.0 mi North 9.2 mph - 0.19 in Rain , Thunderstorm Thunderstorms and Rain
7:53 PM 33.8 °F 25.8 °F 33.8 °F 100% 29.46 in 7.0 mi NNE 10.4 mph 19.6 mph 0.20 in Rain Light Rain
8:13 PM 33.8 °F 25.3 °F 33.8 °F 100% 29.46 in 7.0 mi North 11.5 mph 18.4 mph 0.01 in   Light Drizzle
8:33 PM 33.8 °F 26.4 °F 32.0 °F 93% 29.45 in 4.0 mi North 9.2 mph 17.3 mph 0.03 in Rain Light Rain
8:53 PM 32.0 °F 21.2 °F 30.2 °F 93% 29.45 in 10.0 mi North 16.1 mph 20.7 mph 0.04 in Rain Light Rain
9:14 PM 30.2 °F 19.3 °F 30.2 °F 100% 29.45 in 10.0 mi North 15.0 mph 20.7 mph N/A   Overcast
9:33 PM 30.2 °F 19.3 °F 30.2 °F 100% 29.45 in 10.0 mi North 15.0 mph 24.2 mph N/A   Overcast
9:54 PM 30.2 °F 18.5 °F 28.4 °F 93% 29.46 in 10.0 mi North 17.3 mph 21.9 mph N/A   Overcast
10:13 PM 28.4 °F 14.7 °F 26.6 °F 93% 29.46 in 10.0 mi North 21.9 mph 27.6 mph N/A   Overcast
10:33 PM 26.6 °F 13.4 °F 24.8 °F 93% 29.48 in 10.0 mi North 18.4 mph 27.6 mph N/A   Overcast
10:54 PM 24.8 °F 9.3 °F 21.2 °F 86% 29.48 in 10.0 mi North 24.2 mph 31.1 mph N/A   Overcast
11:13 PM 24.8 °F 10.7 °F 21.2 °F 86% 29.49 in 10.0 mi North 19.6 mph 31.1 mph N/A   Overcast
11:33 PM 21.2 °F 4.9 °F 19.4 °F 93% 29.51 in 10.0 mi North 23.0 mph 29.9 mph N/A   Overcast
11:54 PM 21.2 °F 6.0 °F 17.6 °F 86% 29.52 in 7.0 mi North 19.6 mph 26.5 mph N/A   Overcast